Location: Churchill Northern Studies Centre
(58.7378°N, 93.8201°W)
Time: 17:38:33
(UTC-06:00)

Vanguard 1 - All Passes

Search period start: 25 February 2018 00:00
Search period end: 07 March 2018 00:00
Orbit: 650 x 3833 km, 34.2° (Epoch: 24 February)

Date Brightness Start Highest point End Pass type
(mag) Time Alt. Az. Time Alt. Az. Time Alt. Az.
25 Feb - 12:28:28 10° S 12:33:23 12° SSE 12:37:34 10° SE daylight
25 Feb - 14:46:11 10° SSW 14:53:12 16° S 14:58:30 10° SSE daylight
25 Feb - 17:10:13 10° SW 17:12:01 11° SSW 17:13:40 10° SSW daylight
26 Feb - 12:46:14 10° SSW 12:53:52 15° SSE 12:59:53 10° SE daylight
26 Feb - 15:06:14 10° SW 15:13:39 17° S 15:19:08 10° SSE daylight
27 Feb - 13:05:05 10° SSW 13:14:23 18° S 13:21:18 10° SE daylight
27 Feb - 15:26:36 10° SW 15:34:03 17° SSW 15:39:33 10° SSE daylight
28 Feb - 11:07:49 10° S 11:14:32 13° SSE 11:20:14 10° SE daylight
28 Feb - 13:24:32 10° SSW 13:34:52 20° S 13:42:19 10° SE daylight
28 Feb - 15:47:16 10° SW 15:54:22 17° SSW 15:59:42 10° SSE daylight
01 Mar - 11:25:12 10° S 11:34:58 16° SSE 11:42:42 10° SE daylight
01 Mar - 13:44:24 10° SW 13:55:21 21° S 14:03:03 10° SE daylight
01 Mar - 16:08:12 10° SW 16:14:38 15° SSW 16:19:34 10° S daylight
02 Mar - 11:43:43 10° SSW 11:55:26 20° SSE 12:04:16 10° ESE daylight
02 Mar - 14:04:35 10° SW 14:15:48 22° S 14:23:35 10° SE daylight
02 Mar - 16:29:32 10° WSW 16:34:48 14° SSW 16:39:03 10° S daylight
03 Mar - 09:48:11 10° SSE 09:55:15 13° SE 10:01:29 10° SE daylight
03 Mar - 12:02:54 10° SSW 12:15:55 22° SSE 12:25:24 10° SE daylight
03 Mar - 14:25:01 10° SW 14:36:12 22° SSW 14:43:57 10° SSE daylight
03 Mar - 16:51:38 10° SW 16:54:52 11° SW 16:57:43 10° SSW daylight
04 Mar - 10:04:47 10° S 10:15:35 16° SSE 10:24:30 10° ESE daylight
04 Mar - 12:22:32 10° SW 12:36:24 24° S 12:46:16 10° SE daylight
04 Mar - 14:45:40 10° WSW 14:56:31 21° SSW 15:04:07 10° SSE daylight
05 Mar - 10:22:50 10° SSW 10:35:57 20° SSE 10:46:22 10° ESE daylight
05 Mar - 12:42:29 10° SW 12:56:53 26° S 13:06:56 10° SE daylight
05 Mar - 15:06:33 10° WSW 15:16:47 20° SSW 15:24:04 10° SSE daylight
06 Mar - 08:30:34 10° SSE 08:35:42 11° SE 08:40:31 10° ESE daylight
06 Mar - 10:41:39 10° SSW 10:56:23 23° SSE 11:07:43 10° ESE daylight
06 Mar - 13:02:44 10° SW 13:17:20 27° S 13:27:26 10° SE daylight
06 Mar - 15:27:43 10° WSW 15:36:56 18° SSW 15:43:45 10° S daylight
